Location: Marcé
(47.5801°N, 0.3280°W)
Time: 09:21:47
(UTC+01:00)

Tiros 1 despin weight - Pass Details

Date: 18 December 2021
Orbit: 592 x 641 km, 48.2° (Epoch: 25 January)

Event Time Altitude Azimuth Distance (km) Brightness Sun altitude
Rises 13:21:39 0° 285° (WNW) 2,860 ? 18.8°
Reaches altitude 10° 13:23:59 10° 281° (W) 1,947 ? 18.8°
Maximum altitude 13:28:21 56° 203° (SSW) 713 ? 18.7°
Drops below altitude 10° 13:32:40 10° 126° (SE) 1,921 ? 18.6°
Sets 13:34:57 0° 122° (ESE) 2,817 ? 18.5°
